Regional Weather Roundup
Issued by NWS Wakefield, VA

Home | Current Version | Previous Version | Graphics & Text | Print | Product List | Glossary On
Versions: 1 2 3 4 5 6 7 8 9 10 11 12 13 14 15 16 17 18 19 20 21 22 23 24 25 26 27 28 29 30 31 32 33 34 35 36 37 38 39 40 41 42 43 44 45 46 47 48 49
000
ASUS41 KAKQ 210910
RWRAKQ

REGIONAL WEATHER ROUNDUP
NATIONAL WEATHER SERVICE WAKEFIELD VA
500 AM EDT TUE OCT 21 2014

Note: "fair" indicates few or no clouds below 12,000 feet with no
significant weather and/or obstructions to visibility. * = Denotes
station may not report precipitation (e.g., rain,snow,etc.),
thunder or fog.

VAZ042-051-052>054-056-211000-
NORTHERN VIRGINIA

CITY           SKY/WX    TMP DP  RH WIND       PRES   REMARKS
WASH NATIONAL  PTCLDY    56  48  74 SW3       29.88S
DULLES         PTCLDY    47  45  93 SE3       29.86F
FORT BELVOIR   PTCLDY    50  48  93 CALM      29.87F FOG
QUANTICO       MOCLDY    56  47  71 SW5       29.88F
FREDERICKSBRG* CLOUDY    54  49  82 CALM      29.87S
STAFFORD*      MOCLDY    47  47 100 CALM      29.91F
WARRENTON      PTCLDY    45  45 100 CALM      29.86S
CULPEPER*      PTCLDY    46  46 100 CALM      29.88S
MANASSAS*      CLOUDY    48  48 100 CALM      29.87S
LEESBURG*      PTCLDY    50  50 100 CALM      29.88R
WINCHESTER     PTCLDY    50  45  81 S5        29.86S
FRONT ROYAL*   MOSUNNY   48  46  93 CALM      29.85F
LURAY*         MOSUNNY   52  50  93 SW5       29.87S
$$

VAZ048-049-060>072-079>083-211000-
CENTRAL AND SOUTH CENTRAL VIRGINIA...AND NORTH CENTRAL NORTH CAROLINA

CITY           SKY/WX    TMP DP  RH WIND       PRES   REMARKS
RICHMOND       CLOUDY    56  47  71 CALM      29.88F
CHESTERFIELD*  PTSUNNY  N/A N/A N/A CALM      29.89F
PETERSBURG*    PTCLDY    49  46  89 CALM      29.89F
HANOVER        MOCLDY    53  48  83 CALM      29.89F
TAPPAHANNOCK*  MOCLDY    55  45  69 S3        29.89S
CHARLOTTSVILLE MOCLDY    53  48  83 CALM      29.87F
ORANGE*        CLOUDY    52  50  93 CALM      29.89S
LOUISA*        CLOUDY    52  48  87 CALM      29.87S
FARMVILLE*     MOCLDY    52  50  93 CALM      29.87S
CREWE*         MOSUNNY   53  48  83 CALM      29.89S
FORT PICKETT*  MOSUNNY   51  47  86 SW6       29.89F
LUNENBURG*     MOSUNNY   50  49  95 CALM      29.89S
SOUTH HILL*    PTCLDY    54  52  94 CALM      29.95S
LAWRENCEVILLE* MOSUNNY   52  50  93 CALM      29.89F
ROANOKE RAPIDS CLOUDY    54  52  94 S5        29.90F
RALEIGH        PTCLDY    55  50  83 CALM      29.92S
$$

VAZ088>098-211000-
SOUTHEAST VIRGINIA

CITY           SKY/WX    TMP DP  RH WIND       PRES   REMARKS
NORFOLK        CLOUDY    58  54  86 SW3       29.90F
VIRGINIA BEACH CLOUDY    61  55  81 SW6       29.89F
NORFOLK NAVAL  CLOUDY    61  55  81 VRB3      29.91F
WEST POINT*    MOCLDY    59  53  81 S3        29.90F
NEWPORT NEWS   LGT RAIN  60  55  83 S3        29.89F
LANGLEY AFB    CLOUDY    59  59  99 S7        29.89F
FORT EUSTIS    CLOUDY    58  58 100 S2        29.88F
WILLIAMSBURG*  CLOUDY    61  55  82 SW3       29.90S
HR EXEC AP*    CLOUDY    54  50  87 CALM      29.92S
FRANKLIN*      CLOUDY    55  55 100 CALM      29.91R
WAKEFIELD      MOCLDY    56  53  90 CALM      29.89F
$$

VAZ020-022-025-037-045-211000-
WEST CENTRAL AND SOUTHWEST VIRGINIA

CITY           SKY/WX    TMP DP  RH WIND       PRES   REMARKS
STAUNTON*      PTCLDY    47  43  85 CALM      29.90S
HOT SPRINGS VA CLOUDY    46  44  95 W10       29.89S
LYNCHBURG      CLEAR     49  49 100 CALM      29.91F
DANVILLE       CLEAR     51  48  89 SW3       29.91F
SOUTH BOSTON*  NOT AVBL
MARTINSVILLE   CLEAR     46  46 100 CALM      29.95S
ROANOKE        CLEAR     54  45  71 W6        29.93S
BLACKSBURG     MOCLDY    46  46 100 CALM      29.95F FOG
DUBLIN*        MOCLDY    49  48  97 SW6       29.95S
MARION*        CLOUDY    51  49  92 SW9       29.97F
HILLSVILLE*    MOCLDY    51  46  82 W3        29.95F
RICHLANDS*     CLOUDY    54  49  83 SW8       29.96S
WISE*          CLOUDY    50  50 100 SW7       29.98R
ABINGDON*      CLOUDY    51  50  99 CALM      29.98R
$$

MDZ021>025-VAZ099-100-211000-
SOUTHERN MARYLAND AND THE DELMARVA PENINSULA

CITY           SKY/WX    TMP DP  RH WIND       PRES   REMARKS
PATUXENT RIVER CLOUDY    59  49  69 SW7       29.87F
BAY BRIDGE APT   N/A     59  48  67 SW5       29.87S
LEONARDTOWN    CLOUDY    59  46  63 SW5       29.89S
DOVER          CLOUDY    55  51  87 SE6       29.85F
GEORGETOWN     CLOUDY    54  49  83 CALM      29.89F
EASTON         MOCLDY    56  54  91 CALM      29.90F
CAMBRIDGE      CLOUDY    55  52  88 SE3       29.87F
SALISBURY      CLOUDY    58  53  84 SW3       29.89F
OCEAN CITY     CLOUDY    60  55  83 W7        29.89F
WALLOPS ISLAND CLOUDY    61  56  83 W7        29.90F
ACCOMACK*      CLOUDY    55  54  94 CALM      29.89F
$$

NCZ012>017-030>032-211000-
EASTERN NORTH CAROLINA

CITY           SKY/WX    TMP DP  RH WIND       PRES   REMARKS
ELIZABETH CITY MOCLDY    60  57  89 S5        29.92F
AHOSKIE*       MOCLDY    55  53  95 CALM      29.91S
EDENTON*       MOCLDY    55  53  94 CALM      29.92S
CURRITUCK*     MOCLDY    58  56  94 CALM      29.92S
KILL DEVIL HLS MOCLDY    64  62  94 CALM      29.91S
MANTEO         MOCLDY    63  61  92 SW8       29.93S
CAPE HATTERAS  CLOUDY    67  63  87 CALM      29.93S
TARBORO*       CLOUDY    60  57  89 W3        29.92S
GOLDSBORO      CLOUDY    58  58  98 SW2       29.90F
WASHINGTON     MOCLDY    53  52  95 CALM      29.93S
GREENVILLE     CLOUDY    55  55 100 CALM      29.94S
NEW BERN       PTCLDY    54  51  90 CALM      29.94S
WILMINGTON     CLEAR     55  53  93 CALM      29.93S
$$

VAZ048-211000-
ELSEWHERE

CITY           SKY/WX    TMP DP  RH WIND       PRES   REMARKS
HARRISBURG PA  MOCLDY    52  51  97 CALM      29.85S
BALTIMORE      MOCLDY    50  48  93 CALM      29.86F
ANNAPOLIS      MOCLDY    57  48  72 CALM      29.86F
ANDREWS AFB    MOCLDY    53  47  81 SW8       29.87S
WILMINGTON DE  CLOUDY    54  49  83 SE6       29.88F
PHILADELPHIA   CLOUDY    54  48  80 CALM      29.89F
WILDWOOD NJ*   CLOUDY    52  46  82 CALM      29.90S
ATLANTIC CITY  CLOUDY    49  46  90 CALM      29.89F
HENDERSON NC   PTCLDY    52  48  88 SW3       29.91S
GREENSBORO     CLEAR     52  49  89 CALM      29.92F
ROCKY MOUNT    CLOUDY    59  56  89 SW3       29.91F
FAYETTEVILLE   PTCLDY    56  54  93 W5        29.92F
CHARLOTTE      CLEAR     52  48  86 CALM      29.94F
$$

VAZ100-211000-
MARINE

STATION/POSITION TIME  TEMP    WIND        PRES    WAVE   SWELL
                       AIR SEA DIR/SP/G            HT/PER HT/PER
                 (UTC) (F)     (DEG/KT/KT) (MB)    (FT/S) (FT/S)
44066 TX TWR #4  0900   65 66  230/  6/  8 1013.0F   4/ 7   3/ 7
CAPE MAY NJ      0900   62 66  220/  6/  7 1011.7S
LEWES DE         0900   58 62  230/  4/  6 1011.9F
15NM E FENWICK I 0900   65 66  230/ 12/ 14 1012.0F   4/ 6   2/10
OCEAN-CITY-INLET 0900   61 63  250/  5/  7 1011.9S
WACHAPREAGUE VA  0900   60 61  200/  4/  5 1012.3F
THOMAS POINT MD  0900   60 64  230/ 10/ 11 1012.3F
GOOSES REEF MD   0900   62     230/ 14/ 17 1011.8R
COVE POINT MD    0900   60     230/ 11/ 13 1011.3S
SOLOMONS ISLAND  0900      65                N/A
BISHOPS HEAD MD  0900   61 58  190/  6/  7 1011.3F
PINEY POINT MD   0900          240/ 10/ 12   N/A
POTOMAC MD       0900   62     240/ 12/ 14 1011.0S
CAMBRIDGE MD     0900   58 63  160/  5/  7 1011.2F
LEWISETTA VA     0900   59 62  220/  7/  9 1011.2F
RAPPAHANNOCK LGT 0900          230/  9/ 10 1012.2F
STINGRAY PT      0900   63     220/  8/ 12 1012.5F
YORK RVR RNG VA  0900   62     250/  8/  9 1011.4F
YORKTOWN VA      0900   60 67  230/  6/  6 1011.4F
JAMESTOWN VA     0900   59     240/  2/  4   N/A
DOMINION TERM VA 0900   62     220/  7/  9 1012.1F
KIPTOPEKE VA     0900      69  250/  7/  9   N/A
CHES BAY BRIDGE  0900   61 67  220/  7/  8 1011.8F
CHESAPEAKE LGHT  0800   66     240/ 17/ 18 1013.1F
WILLOUBY STN VA  0900   61     210/  6/  7 1011.0R
S CRANEY ISL VA  0900          210/  3/  5 1012.0F
CAPE HENRY BUOY  0900      68                N/A     3/10   2/11
1ST LANDING BUOY 0900   62     240/  8/ 10 1012.1F
CAPE CHARLES BUO 0900      68                N/A     3/11   2/11
64NM E OF VA BCH 0900   69 69  260/ 12/ 14 1012.6S   3/ 5   2/12
DUCK PIER NC     0900   65 69  170/  7/  9 1012.4R
44100 DUCK FRF   0900      71                N/A     3/11   2/11
44056 DUCK FRF   0900                        N/A     2/11   2/11
OREGON INLET NC  0900   65 67  180/  4/  6 1013.2S
HATTERAS NC      0900   66 72  280/  2/  4 1013.8R
DIAMOND SHLS NC  0900   64     250/  6/  8 1013.9R   3/ 8   3/ 8
CAPE LOOKOUT NC  0800   69     280/  2/  2 1012.9F
$$



USA.gov is the U.S. government's official web portal to all federal, state and local government web resources and services.